Mackinac Island, MI

4:49 AM EDT on June 26, 2017 (GMT -0400)
Mackinac Island

Weather History for KMCD - March, 2011

Change the Weather History Date:

Thursday, March 3, 2011

  Actual Average Record
Temperature  
Mean Temperature 16 °F -  
Max Temperature 23 °F 26 °F 51 °F (1974)
Min Temperature 8 °F 14 °F -16 °F (2003)
Degree Days  
Heating Degree Days 50    
Moisture  
Dew Point 10 °F    
Average Humidity 78    
Maximum Humidity 93    
Minimum Humidity 50    
Precipitation  
Precipitation 0.01 in - - ()
Sea Level Pressure  
Sea Level Pressure 30.47 in    
Wind  
Wind Speed 2 mph (SSE)    
Max Wind Speed 10 mph    
Max Gust Speed 22 mph    
Visibility 9 miles    
Events Snow    
Averages and records for this station are not official NWS values.
T = Trace of Precipitation, MM = Missing Value Source: NWS Daily Summary

Daily Weather History Graph

Daily Weather History Graph

Search for Another Location

Airport or City:

Trip Planner

Search our weather history database for the weather conditions in past years. The results will help you decide how hot, cold, wet, or windy it might be!

Date:

Astronomy

Mar. 03, 2011 Rise Set
Actual Time 7:14 AM EST 6:27 PM EST
Civil Twilight 6:44 AM EST 6:57 PM EST
Nautical Twilight 6:09 AM EST 7:32 PM EST
Astronomical Twilight 5:35 AM EST 8:06 PM EST
Moon 6:22 AM EST (3/3) 5:39 PM EST (3/3)
Length of Visible Light 12h 13m
Length of Day
11h 13m
Waning Crescent, 1% of the Moon is Illuminated
Mar 3
Waning Crescent
Mar 4
New
Mar 12
First Quarter
Mar 19
Full
Mar 26
Last Quarter

Hourly Weather History & Observations

Time (EST) Temp. Windchill Dew Point Humidity Pressure Visibility Wind Dir Wind Speed Gust Speed Precip Events Conditions
12:12 AM 12.2 °F - 5.0 °F 73% 30.51 in 10.0 mi Calm Calm - N/A   Clear
12:32 AM 10.4 °F - 5.0 °F 79% 30.51 in 10.0 mi Calm Calm - N/A   Clear
12:52 AM 10.4 °F - 5.0 °F 79% 30.52 in 10.0 mi Calm Calm - N/A   Clear
1:13 AM 10.4 °F - 5.0 °F 79% 30.53 in 10.0 mi Calm Calm - N/A   Clear
1:32 AM 12.2 °F - 6.8 °F 79% 30.53 in 10.0 mi Calm Calm - N/A   Clear
1:52 AM 10.4 °F - 6.8 °F 85% 30.54 in 10.0 mi Calm Calm - N/A   Clear
2:13 AM 12.2 °F - 8.6 °F 85% 30.55 in 10.0 mi Calm Calm - N/A   Clear
2:32 AM 10.4 °F - 6.8 °F 85% 30.55 in 10.0 mi Calm Calm - N/A   Clear
2:52 AM 10.4 °F - 6.8 °F 85% 30.55 in 10.0 mi Calm Calm - N/A   Clear
3:12 AM 8.6 °F - 6.8 °F 92% 30.54 in 10.0 mi Calm Calm - N/A   Clear
3:32 AM 8.6 °F - 5.0 °F 85% 30.54 in 10.0 mi Calm Calm - N/A   Clear
3:52 AM 8.6 °F - 5.0 °F 85% 30.54 in 10.0 mi Calm Calm - N/A   Clear
4:12 AM 8.6 °F - 6.8 °F 92% 30.53 in 10.0 mi Calm Calm - N/A   Clear
4:52 AM 10.4 °F 4.0 °F 6.8 °F 85% 30.54 in 10.0 mi South 3.5 mph - N/A   Clear
5:12 AM 10.4 °F - 6.8 °F 85% 30.54 in 10.0 mi Calm Calm - N/A   Clear
5:32 AM 10.4 °F - 8.6 °F 92% 30.54 in 10.0 mi Calm Calm - N/A   Clear
5:52 AM 12.2 °F 6.1 °F 6.8 °F 79% 30.53 in 10.0 mi South 3.5 mph - N/A   Scattered Clouds
6:12 AM 12.2 °F 6.1 °F 6.8 °F 79% 30.53 in 10.0 mi South 3.5 mph - N/A   Scattered Clouds
6:32 AM 12.2 °F 6.1 °F 6.8 °F 79% 30.54 in 10.0 mi South 3.5 mph - N/A   Clear
6:52 AM 12.2 °F - 6.8 °F 79% 30.54 in 10.0 mi Calm Calm - N/A   Scattered Clouds
7:12 AM 12.2 °F 4.3 °F 5.0 °F 73% 30.53 in 10.0 mi SSE 4.6 mph - N/A   Scattered Clouds
7:32 AM 12.2 °F - 5.0 °F 73% 30.53 in 10.0 mi Calm Calm - N/A   Mostly Cloudy
7:52 AM 12.2 °F 2.9 °F 5.0 °F 73% 30.52 in 10.0 mi South 5.8 mph - N/A   Mostly Cloudy
8:12 AM 14.0 °F 6.5 °F 5.0 °F 67% 30.53 in 10.0 mi South 4.6 mph - N/A   Scattered Clouds
8:32 AM 14.0 °F 6.5 °F 5.0 °F 67% 30.52 in 10.0 mi SSE 4.6 mph - N/A   Scattered Clouds
8:52 AM 14.0 °F 5.1 °F 5.0 °F 67% 30.53 in 10.0 mi South 5.8 mph - N/A   Scattered Clouds
9:12 AM 14.0 °F 5.1 °F 5.0 °F 67% 30.53 in 10.0 mi SSE 5.8 mph - N/A   Overcast
9:32 AM 15.8 °F 7.2 °F 5.0 °F 62% 30.53 in 10.0 mi South 5.8 mph - N/A   Overcast
9:52 AM 17.6 °F 12.3 °F 5.0 °F 58% 30.52 in 10.0 mi South 3.5 mph - N/A   Overcast
10:12 AM 17.6 °F 10.7 °F 5.0 °F 58% 30.52 in 10.0 mi SSE 4.6 mph - N/A   Mostly Cloudy
10:32 AM 19.4 °F 14.3 °F 5.0 °F 54% 30.51 in 10.0 mi SSE 3.5 mph - N/A   Overcast
10:52 AM 19.4 °F 11.5 °F 6.8 °F 58% 30.50 in 10.0 mi SE 5.8 mph - N/A   Mostly Cloudy
11:13 AM 19.4 °F 14.3 °F 6.8 °F 58% 30.50 in 10.0 mi SSE 3.5 mph - N/A   Mostly Cloudy
11:32 AM 19.4 °F 11.5 °F 6.8 °F 58% 30.50 in 10.0 mi SSE 5.8 mph - N/A   Mostly Cloudy
11:52 AM 21.2 °F 12.6 °F 5.0 °F 50% 30.48 in 10.0 mi SE 6.9 mph - N/A   Overcast
12:12 PM 21.2 °F - 5.0 °F 50% 30.48 in 10.0 mi Calm Calm - N/A   Overcast
12:32 PM 21.2 °F 16.4 °F 8.6 °F 58% 30.47 in 5.0 mi SSE 3.5 mph - N/A Snow Light Snow
12:52 PM 19.4 °F 12.8 °F 14.0 °F 80% 30.47 in 1.0 mi SSE 4.6 mph - N/A Snow Light Snow
1:12 PM 19.4 °F 14.3 °F 15.8 °F 86% 30.46 in 1.0 mi SSE 3.5 mph - N/A Snow Light Snow
1:32 PM 19.4 °F 14.3 °F 15.8 °F 86% 30.45 in 0.8 mi SE 3.5 mph - N/A Snow Light Snow
2:12 PM 19.4 °F 14.3 °F 17.6 °F 93% 30.43 in 0.8 mi ESE 3.5 mph - N/A Snow Light Snow
2:32 PM 21.2 °F 14.9 °F 17.6 °F 86% 30.42 in 0.5 mi SE 4.6 mph - 0.01 in Snow Snow
3:12 PM 21.2 °F 14.9 °F 19.4 °F 93% 30.42 in 1.8 mi ESE 4.6 mph - N/A Snow Light Snow
3:32 PM 21.2 °F 14.9 °F 19.4 °F 93% 30.40 in 10.0 mi ESE 4.6 mph - N/A   Mostly Cloudy
3:52 PM 23.0 °F 14.7 °F 19.4 °F 86% 30.39 in 10.0 mi ESE 6.9 mph - N/A   Mostly Cloudy
4:12 PM 23.0 °F 14.7 °F 19.4 °F 86% 30.37 in 10.0 mi SE 6.9 mph - N/A   Mostly Cloudy
4:34 PM 23.0 °F 12.4 °F 19.4 °F 86% 30.35 in 10.0 mi ESE 10.4 mph 21.9 mph N/A   Mostly Cloudy
4:53 PM 23.0 °F 13.9 °F 21.2 °F 93% 30.33 in 10.0 mi SE 8.1 mph 18.4 mph N/A   Overcast
5:12 PM 23.0 °F 14.7 °F 21.2 °F 93% 30.31 in 10.0 mi SE 6.9 mph 17.3 mph N/A   Mostly Cloudy
5:32 PM 23.0 °F 13.9 °F 19.4 °F 86% 30.32 in 10.0 mi SSE 8.1 mph - N/A   Overcast
5:52 PM 23.0 °F 17.0 °F 19.4 °F 86% 30.32 in 10.0 mi SSE 4.6 mph - N/A   Overcast
6:13 PM 23.0 °F 15.8 °F 19.4 °F 86% 30.30 in 10.0 mi SSE 5.8 mph - N/A   Overcast
6:32 PM 23.0 °F 14.7 °F 19.4 °F 86% 30.29 in 10.0 mi SSE 6.9 mph - N/A   Overcast
6:52 PM 23.0 °F 17.0 °F 19.4 °F 86% 30.28 in 10.0 mi SE 4.6 mph - N/A   Overcast
7:12 PM 23.0 °F 15.8 °F 19.4 °F 86% 30.27 in 10.0 mi SSE 5.8 mph - N/A   Overcast
7:32 PM 23.0 °F 13.9 °F 19.4 °F 86% 30.26 in 10.0 mi SE 8.1 mph - N/A   Overcast
7:52 PM 23.0 °F 13.9 °F 19.4 °F 86% 30.25 in 10.0 mi SE 8.1 mph 20.7 mph N/A   Overcast
8:12 PM 23.0 °F 12.4 °F 19.4 °F 86% 30.25 in 10.0 mi SSE 10.4 mph 26.5 mph N/A   Overcast
8:32 PM 23.0 °F 14.7 °F 19.4 °F 86% 30.24 in 10.0 mi SSE 6.9 mph - N/A   Overcast
8:52 PM 23.0 °F 13.9 °F 19.4 °F 86% 30.24 in 10.0 mi SE 8.1 mph - N/A   Overcast
9:12 PM 23.0 °F 18.4 °F 21.2 °F 93% 30.24 in 10.0 mi SSE 3.5 mph - N/A   Overcast
9:32 PM 23.0 °F 15.8 °F 21.2 °F 93% 30.24 in 10.0 mi SSE 5.8 mph - N/A   Overcast
9:52 PM 24.8 °F - 21.2 °F 86% 30.23 in 10.0 mi Calm Calm - N/A Snow Light Snow
10:12 PM 24.8 °F 19.1 °F 21.2 °F 86% 30.23 in 10.0 mi SE 4.6 mph - N/A Snow Light Snow
10:32 PM 24.8 °F 19.1 °F 19.4 °F 80% 30.22 in 10.0 mi SE 4.6 mph - N/A   Overcast
10:52 PM 24.8 °F 20.5 °F 19.4 °F 80% 30.23 in 10.0 mi SE 3.5 mph - N/A   Overcast
11:12 PM 24.8 °F 20.5 °F 19.4 °F 80% 30.22 in 10.0 mi SE 3.5 mph - N/A   Overcast
11:32 PM 24.8 °F 20.5 °F 19.4 °F 80% 30.23 in 10.0 mi ESE 3.5 mph - N/A   Overcast
11:52 PM 24.8 °F - 17.6 °F 74% 30.23 in 10.0 mi Calm Calm - N/A   Overcast